Tracking 21473 objects as of 26-Sep-2020
HD Live streaming from Space Station
objects crossing your sky now

COSMOS 1375 DEB

Track COSMOS 1375 DEB now!
10-day predictions


NORAD ID: 18415
Int'l Code: 1982-055BE
Perigee: 959.7 km
Apogee: 1,051.1 km
Inclination: 65.8 °
Period: 105.1 minutes
Semi major axis: 7376 km
RCS: 0.0876 m2 (small)
Launch date: June 6, 1982
Source: Commonwealth of Independent States (former USSR) (CIS)
Launch site: PLESETSK MISSILE AND SPACE COMPLEX (PKMTR)

Note: This is SATELLITE DEBRIS
aabbcc
Your satellite tracking list
Your tracking list is empty




NASA's NSSDC Master Catalog

Two Line Element Set (TLE):
1 18415U 82055BE  20269.90402016 +.00000095 +00000-0 +19429-3 0  9992
2 18415 065.8292 319.4561 0061960 041.9237 129.9241 13.70369036740423
Source of the keplerian elements: AFSPC